📊 Raw Sensor Data

Showing records 52651 to 52675 of 85,299 total

ID Distance (ft) Battery V Battery A Int Temp (°F) Int Humid (%) Ext Temp (°F) Solar V RSSI SNR Time Stamp
32661 12.8 3.73 0 62 40 58 5.10 -77 8 02/17/2025 05:00 PM
32660 12.8 3.74 0 62 40 59 5.10 -77 8 02/17/2025 04:45 PM
32659 12.8 3.80 0 63 41 59 5.10 -77 8 02/17/2025 04:30 PM
32658 12.8 3.74 0 64 40 60 5.10 -77 8 02/17/2025 04:15 PM
32657 12.8 3.73 0 67 40 60 5.10 -77 8 02/17/2025 04:00 PM
32656 12.8 3.73 0 70 38 61 5.10 -77 8 02/17/2025 03:45 PM
32655 12.9 3.73 0 73 37 62 5.10 -77 8 02/17/2025 03:30 PM
32654 12.9 3.73 0 74 35 62 5.10 -77 8 02/17/2025 03:15 PM
32653 12.9 3.75 0 72 36 61 5.10 -77 8 02/17/2025 03:00 PM
32652 12.9 3.75 0 69 38 61 5.10 -77 8 02/17/2025 02:45 PM
32651 12.9 3.75 0 69 37 60 5.10 -77 7 02/17/2025 02:30 PM
32650 12.9 3.75 0 72 35 60 5.10 -77 7 02/17/2025 02:15 PM
32649 12.9 3.75 0 71 35 60 5.10 -78 7 02/17/2025 02:00 PM
32648 12.9 3.75 0 70 35 61 5.10 -77 8 02/17/2025 01:45 PM
32647 12.9 3.78 0 67 36 59 5.10 -77 8 02/17/2025 01:30 PM
32646 12.9 3.75 0 66 36 58 5.10 -78 8 02/17/2025 01:15 PM
32645 12.9 4.06 0 65 36 58 5.10 -78 6 02/17/2025 01:00 PM
32644 12.9 3.98 0 65 37 59 5.10 -79 8 02/17/2025 12:45 PM
32643 12.9 3.74 0 65 36 57 5.10 -79 8 02/17/2025 12:30 PM
32642 12.9 4.03 0 67 34 59 5.10 -79 8 02/17/2025 12:15 PM
32641 12.9 3.74 0 66 34 61 5.10 -78 8 02/17/2025 12:00 PM
32640 12.9 3.74 0 61 35 60 5.10 -79 8 02/17/2025 11:45 AM
32639 12.8 3.75 0 59 35 58 5.10 -79 7 02/17/2025 11:30 AM
32638 12.9 3.89 0 58 36 57 5.10 -79 8 02/17/2025 11:15 AM
32637 12.8 3.75 0 57 35 57 5.10 -79 8 02/17/2025 11:00 AM